Time,TemperatureF,DewpointF,PressureIn,WindDirection,WindDirectionDegrees,WindSpeedMPH,WindSpeedGustMPH,Humidity,HourlyPrecipIn,Conditions,Clouds,dailyrainin,SolarRadiationWatts/m^2,SoftwareType,DateUTC
2013-02-21 00:03:00,43.6,11.8,29.82,WNW,302,6.9,6.9,27,0.00,FEW,,0.00,0.0,WeatherDisplay:10.37,2013-02-21 08:03:00,
2013-02-21 00:08:00,43.4,11.6,29.82,NNW,344,5.0,5.0,27,0.00,FEW,,0.00,0.0,WeatherDisplay:10.37,2013-02-21 08:08:00,
2013-02-21 00:13:00,43.2,11.4,29.82,ENE,58,0.0,0.0,27,0.00,FEW,,0.00,0.0,WeatherDisplay:10.37,2013-02-21 08:13:00,
2013-02-21 00:18:00,42.7,11.0,29.82,SW,219,3.5,3.5,27,0.00,FEW,,0.00,0.0,WeatherDisplay:10.37,2013-02-21 08:18:00,
2013-02-21 00:23:00,42.2,16.5,29.82,ESE,103,3.5,3.5,35,0.00,FEW,,0.00,0.0,WeatherDisplay:10.37,2013-02-21 08:23:00,
2013-02-21 00:28:00,42.2,14.4,29.82,South,191,0.0,0.0,32,0.00,FEW,,0.00,0.0,WeatherDisplay:10.37,2013-02-21 08:28:00,
2013-02-21 00:33:00,41.9,14.8,29.83,SW,232,0.0,0.0,33,0.00,FEW,,0.00,0.0,WeatherDisplay:10.37,2013-02-21 08:33:00,
2013-02-21 00:38:00,41.6,15.3,29.83,ENE,69,2.3,2.3,34,0.00,FEW,,0.00,0.0,WeatherDisplay:10.37,2013-02-21 08:38:00,
2013-02-21 00:43:00,42.3,10.6,29.83,NE,42,3.5,3.5,27,0.00,FEW,,0.00,0.0,WeatherDisplay:10.37,2013-02-21 08:43:00,
2013-02-21 00:48:00,42.6,10.1,29.83,NE,55,5.0,5.0,26,0.00,FEW,,0.00,0.0,WeatherDisplay:10.37,2013-02-21 08:48:00,
2013-02-21 00:53:00,42.7,9.3,29.83,NNW,346,5.8,5.8,25,0.00,FEW,,0.00,0.0,WeatherDisplay:10.37,2013-02-21 08:53:00,
2013-02-21 00:58:00,42.9,9.4,29.83,NNE,13,5.8,5.8,25,0.00,FEW,,0.00,0.0,WeatherDisplay:10.37,2013-02-21 08:58:00,
2013-02-21 01:03:00,42.7,8.4,29.83,NW,309,6.0,6.0,24,0.00,FEW,,0.00,0.0,WeatherDisplay:10.37,2013-02-21 09:03:00,
2013-02-21 01:08:00,42.6,8.3,29.83,North,360,10.4,10.4,24,0.00,FEW,,0.00,0.0,WeatherDisplay:10.37,2013-02-21 09:08:00,
2013-02-21 01:13:00,42.9,8.5,29.83,North,351,11.5,11.5,24,0.00,FEW,,0.00,0.0,WeatherDisplay:10.37,2013-02-21 09:13:00,
2013-02-21 01:18:00,42.6,8.3,29.83,NNE,13,7.0,7.0,24,0.00,FEW,,0.00,0.0,WeatherDisplay:10.37,2013-02-21 09:18:00,
2013-02-21 01:23:00,42.4,9.0,29.83,NW,323,6.9,6.9,25,0.00,FEW,,0.00,0.0,WeatherDisplay:10.37,2013-02-21 09:23:00,
2013-02-21 01:28:00,42.3,8.9,29.83,North,360,6.9,6.9,25,0.00,FEW,,0.00,0.0,WeatherDisplay:10.37,2013-02-21 09:28:00,
2013-02-21 01:33:00,42.2,8.8,29.83,NW,321,3.5,3.5,25,0.00,FEW,,0.00,0.0,WeatherDisplay:10.37,2013-02-21 09:33:00,
2013-02-21 01:38:00,42.2,8.8,29.83,NNE,17,6.9,6.9,25,0.00,FEW,,0.00,0.0,WeatherDisplay:10.37,2013-02-21 09:38:00,
2013-02-21 01:43:00,41.9,8.6,29.83,NE,52,9.0,9.0,25,0.00,FEW,,0.00,0.0,WeatherDisplay:10.37,2013-02-21 09:43:00,
2013-02-21 01:48:00,41.6,8.3,29.84,NE,36,6.0,6.0,25,0.00,FEW,,0.00,0.0,WeatherDisplay:10.37,2013-02-21 09:48:00,
2013-02-21 01:53:00,41.6,8.3,29.84,NW,319,3.5,0.0,25,0.00,FEW,,0.00,0.0,WeatherDisplay:10.37,2013-02-21 09:53:00,
2013-02-21 01:58:00,40.6,13.0,29.84,West,262,2.3,2.3,32,0.00,FEW,,0.00,0.0,WeatherDisplay:10.37,2013-02-21 09:58:00,
2013-02-21 02:03:00,39.6,14.2,29.85,SSE,156,3.5,3.5,35,0.00,FEW,,0.00,0.0,WeatherDisplay:10.37,2013-02-21 10:03:00,
2013-02-21 02:08:00,39.4,14.0,29.85,SSE,160,2.0,2.0,35,0.00,FEW,,0.00,0.0,WeatherDisplay:10.37,2013-02-21 10:08:00,
2013-02-21 02:13:00,39.0,15.5,29.85,SSE,158,2.3,0.0,38,0.00,FEW,,0.00,0.0,WeatherDisplay:10.37,2013-02-21 10:13:00,
2013-02-21 02:18:00,37.7,16.1,29.85,SSE,158,0.0,0.0,41,0.00,FEW,,0.00,0.0,WeatherDisplay:10.37,2013-02-21 10:18:00,
2013-02-21 02:23:00,38.4,17.3,29.85,SW,228,3.5,3.5,42,0.00,FEW,,0.00,0.0,WeatherDisplay:10.37,2013-02-21 10:23:00,
2013-02-21 02:28:00,38.3,24.0,29.85,SW,227,3.5,3.5,56,0.00,FEW,,0.00,0.0,WeatherDisplay:10.37,2013-02-21 10:28:00,
2013-02-21 02:33:00,37.9,23.6,29.85,SW,235,1.2,0.0,56,0.00,FEW,,0.00,0.0,WeatherDisplay:10.37,2013-02-21 10:33:00,
2013-02-21 02:38:00,37.6,22.0,29.85,SW,233,2.3,2.3,53,0.00,FEW,,0.00,0.0,WeatherDisplay:10.37,2013-02-21 10:38:00,
2013-02-21 02:43:00,37.4,22.7,29.85,WSW,248,1.2,1.2,55,0.00,FEW,,0.00,0.0,WeatherDisplay:10.37,2013-02-21 10:43:00,
2013-02-21 02:48:00,37.1,22.8,29.85,SW,236,2.3,2.3,56,0.00,FEW,,0.00,0.0,WeatherDisplay:10.37,2013-02-21 10:48:00,
2013-02-21 02:53:00,36.4,23.0,29.85,SW,236,0.0,0.0,58,0.00,FEW,,0.00,0.0,WeatherDisplay:10.37,2013-02-21 10:53:00,
2013-02-21 02:58:00,36.1,23.5,29.85,SW,236,0.0,0.0,60,0.00,FEW,,0.00,0.0,WeatherDisplay:10.37,2013-02-21 10:58:00,
2013-02-21 03:03:00,36.6,24.8,29.85,SW,232,2.3,0.0,62,0.00,FEW,,0.00,0.0,WeatherDisplay:10.37,2013-02-21 11:03:00,
2013-02-21 03:08:00,36.9,24.7,29.85,SW,232,2.3,2.3,61,0.00,FEW,,0.00,0.0,WeatherDisplay:10.37,2013-02-21 11:08:00,
2013-02-21 03:13:00,36.7,24.9,29.85,WSW,244,2.3,2.3,62,0.00,FEW,,0.00,0.0,WeatherDisplay:10.37,2013-02-21 11:13:00,
2013-02-21 03:18:00,36.7,25.3,29.85,WSW,239,2.3,2.3,63,0.00,FEW,,0.00,0.0,WeatherDisplay:10.37,2013-02-21 11:18:00,
2013-02-21 03:23:00,36.6,25.2,29.85,SW,229,1.2,1.2,63,0.00,FEW,,0.00,0.0,WeatherDisplay:10.37,2013-02-21 11:23:00,
2013-02-21 03:28:00,35.6,24.6,29.85,WSW,237,0.0,0.0,64,0.00,FEW,,0.00,0.0,WeatherDisplay:10.37,2013-02-21 11:28:00,
2013-02-21 03:33:00,36.6,24.8,29.85,SW,225,2.3,2.3,62,0.00,FEW,,0.00,0.0,WeatherDisplay:10.37,2013-02-21 11:33:00,
2013-02-21 03:38:00,37.1,23.7,29.85,SW,227,2.3,2.3,58,0.00,FEW,,0.00,0.0,WeatherDisplay:10.37,2013-02-21 11:38:00,
2013-02-21 03:43:00,36.9,23.5,29.85,WSW,244,1.2,1.2,58,0.00,FEW,,0.00,0.0,WeatherDisplay:10.37,2013-02-21 11:43:00,
2013-02-21 03:48:00,36.7,24.1,29.85,WSW,250,2.3,2.3,60,0.00,FEW,,0.00,0.0,WeatherDisplay:10.37,2013-02-21 11:48:00,
2013-02-21 03:53:00,36.3,23.7,29.85,WSW,250,3.5,0.0,60,0.00,FEW,,0.00,0.0,WeatherDisplay:10.37,2013-02-21 11:53:00,
2013-02-21 03:58:00,35.9,23.4,29.85,WSW,247,0.0,0.0,60,0.00,FEW,,0.00,0.0,WeatherDisplay:10.37,2013-02-21 11:58:00,
2013-02-21 04:03:00,36.0,23.0,29.86,WSW,239,1.2,1.2,59,0.00,FEW,,0.00,0.0,WeatherDisplay:10.37,2013-02-21 12:03:00,
2013-02-21 04:08:00,36.7,23.3,29.86,SW,225,1.2,0.0,58,0.00,FEW,,0.00,0.0,WeatherDisplay:10.37,2013-02-21 12:08:00,
2013-02-21 04:13:00,36.4,23.4,29.86,SW,232,1.0,1.0,59,0.00,FEW,,0.00,0.0,WeatherDisplay:10.37,2013-02-21 12:13:00,
2013-02-21 04:18:00,37.0,23.2,29.87,SW,234,0.0,0.0,57,0.00,FEW,,0.00,0.0,WeatherDisplay:10.37,2013-02-21 12:18:00,
2013-02-21 04:23:00,36.1,22.7,29.87,SW,236,0.0,0.0,58,0.00,FEW,,0.00,0.0,WeatherDisplay:10.37,2013-02-21 12:23:00,
2013-02-21 04:28:00,35.1,22.6,29.87,WSW,237,0.0,0.0,60,0.00,FEW,,0.00,0.0,WeatherDisplay:10.37,2013-02-21 12:28:00,
2013-02-21 04:33:00,35.0,22.5,29.87,WSW,250,1.2,0.0,60,0.00,FEW,,0.00,0.0,WeatherDisplay:10.37,2013-02-21 12:33:00,
2013-02-21 04:38:00,34.3,22.6,29.87,WNW,302,0.0,0.0,62,0.00,FEW,,0.00,0.0,WeatherDisplay:10.37,2013-02-21 12:38:00,
2013-02-21 04:43:00,33.8,22.1,29.87,North,351,0.0,0.0,62,0.00,FEW,,0.00,0.0,WeatherDisplay:10.37,2013-02-21 12:43:00,
2013-02-21 04:48:00,33.5,21.9,29.88,North,351,0.0,0.0,62,0.00,FEW,,0.00,0.0,WeatherDisplay:10.37,2013-02-21 12:48:00,
2013-02-21 04:53:00,33.2,21.6,29.88,North,351,0.0,0.0,62,0.00,FEW,,0.00,0.0,WeatherDisplay:10.37,2013-02-21 12:53:00,
2013-02-21 04:58:00,33.5,21.5,29.88,NNW,339,0.0,0.0,61,0.00,FEW,,0.00,0.0,WeatherDisplay:10.37,2013-02-21 12:58:00,
2013-02-21 05:03:00,34.3,21.8,29.88,West,270,0.0,0.0,60,0.00,FEW,,0.00,0.0,WeatherDisplay:10.37,2013-02-21 13:03:00,
2013-02-21 05:08:00,33.4,21.4,29.88,West,270,0.0,0.0,61,0.00,FEW,,0.00,0.0,WeatherDisplay:10.37,2013-02-21 13:08:00,
2013-02-21 05:13:00,32.9,21.3,29.88,West,270,0.0,0.0,62,0.00,FEW,,0.00,0.0,WeatherDisplay:10.37,2013-02-21 13:13:00,
2013-02-21 05:18:00,32.8,21.2,29.88,West,270,0.0,0.0,62,0.00,FEW,,0.00,0.0,WeatherDisplay:10.37,2013-02-21 13:18:00,
2013-02-21 05:23:00,32.8,21.2,29.88,West,270,0.0,0.0,62,0.00,FEW,,0.00,0.0,WeatherDisplay:10.37,2013-02-21 13:23:00,
2013-02-21 05:28:00,33.1,21.5,29.88,West,270,0.0,0.0,62,0.00,FEW,,0.00,0.0,WeatherDisplay:10.37,2013-02-21 13:28:00,
2013-02-21 05:33:00,33.8,21.8,29.88,WSW,244,0.0,0.0,61,0.00,FEW,,0.00,0.0,WeatherDisplay:10.37,2013-02-21 13:33:00,
2013-02-21 05:38:00,33.7,22.1,29.88,WSW,244,0.0,0.0,62,0.00,FEW,,0.00,0.0,WeatherDisplay:10.37,2013-02-21 13:38:00,
2013-02-21 05:43:00,33.7,21.7,29.88,West,266,0.0,0.0,61,0.00,FEW,,0.00,0.0,WeatherDisplay:10.37,2013-02-21 13:43:00,
2013-02-21 05:48:00,34.0,22.0,29.89,West,266,0.0,0.0,61,0.00,FEW,,0.00,0.0,WeatherDisplay:10.37,2013-02-21 13:48:00,
2013-02-21 05:53:00,33.8,22.1,29.89,West,262,0.0,0.0,62,0.00,FEW,,0.00,0.0,WeatherDisplay:10.37,2013-02-21 13:53:00,
2013-02-21 05:58:00,34.7,22.6,29.89,West,261,0.0,0.0,61,0.00,FEW,,0.00,0.0,WeatherDisplay:10.37,2013-02-21 13:58:00,
2013-02-21 06:03:00,35.3,21.6,29.89,WSW,250,0.0,0.0,57,0.00,SCT,,0.00,0.0,WeatherDisplay:10.37,2013-02-21 14:03:00,
2013-02-21 06:08:00,35.9,20.4,29.89,SW,234,0.0,0.0,53,0.00,SCT,,0.00,0.0,WeatherDisplay:10.37,2013-02-21 14:08:00,
2013-02-21 06:13:00,36.0,20.1,29.89,SW,235,1.2,1.2,52,0.00,SCT,,0.00,0.0,WeatherDisplay:10.37,2013-02-21 14:13:00,
2013-02-21 06:18:00,36.1,19.7,29.89,SW,233,0.0,0.0,51,0.00,SCT,,0.00,5.7,WeatherDisplay:10.37,2013-02-21 14:18:00,
2013-02-21 06:23:00,35.4,19.9,29.89,SW,234,0.0,0.0,53,0.00,SCT,,0.00,5.7,WeatherDisplay:10.37,2013-02-21 14:23:00,
2013-02-21 06:28:00,34.9,19.5,29.89,WSW,249,0.0,0.0,53,0.00,SCT,,0.00,10.3,WeatherDisplay:10.37,2013-02-21 14:28:00,
2013-02-21 06:33:00,34.7,19.7,29.91,WSW,249,0.0,0.0,54,0.00,SCT,,0.00,13.7,WeatherDisplay:10.37,2013-02-21 14:33:00,
2013-02-21 06:38:00,34.7,19.7,29.91,WSW,249,0.0,0.0,54,0.00,SCT,,0.00,20.5,WeatherDisplay:10.37,2013-02-21 14:38:00,
2013-02-21 06:43:00,34.6,19.2,29.91,WSW,249,0.0,0.0,53,0.00,SCT,,0.00,23.9,WeatherDisplay:10.37,2013-02-21 14:43:00,
2013-02-21 06:48:00,34.7,19.7,29.91,WSW,249,0.0,0.0,54,0.00,SCT,,0.00,28.5,WeatherDisplay:10.37,2013-02-21 14:48:00,
2013-02-21 06:53:00,34.9,19.9,29.91,WSW,249,0.0,0.0,54,0.00,SCT,,0.00,31.9,WeatherDisplay:10.37,2013-02-21 14:53:00,
2013-02-21 06:58:00,34.9,20.4,29.91,WSW,249,0.0,0.0,55,0.00,SCT,,0.00,42.2,WeatherDisplay:10.37,2013-02-21 14:58:00,
2013-02-21 07:03:00,34.7,20.6,29.92,WSW,249,0.0,0.0,56,0.00,SCT,,0.00,47.9,WeatherDisplay:10.37,2013-02-21 15:03:00,
2013-02-21 07:08:00,34.7,20.2,29.92,WSW,249,0.0,0.0,55,0.00,SCT,,0.00,55.9,WeatherDisplay:10.37,2013-02-21 15:08:00,
2013-02-21 07:13:00,34.4,20.3,29.92,WSW,249,0.0,0.0,56,0.00,SCT,,0.00,63.8,WeatherDisplay:10.37,2013-02-21 15:13:00,
2013-02-21 07:18:00,34.9,20.4,29.93,WSW,248,0.0,0.0,55,0.00,SCT,,0.00,74.1,WeatherDisplay:10.37,2013-02-21 15:18:00,
2013-02-21 07:23:00,35.3,19.4,29.93,WSW,238,0.0,0.0,52,0.00,SCT,,0.00,84.4,WeatherDisplay:10.37,2013-02-21 15:23:00,
2013-02-21 07:29:00,35.4,19.9,29.93,WSW,238,0.0,0.0,53,0.00,SCT,,0.00,100.3,WeatherDisplay:10.37,2013-02-21 15:29:00,
2013-02-21 07:34:00,35.3,17.1,29.94,South,178,3.5,3.5,47,0.00,SCT,,0.00,122.0,WeatherDisplay:10.37,2013-02-21 15:34:00,
2013-02-21 07:39:00,35.4,15.6,29.94,SSE,150,0.0,0.0,44,0.00,SCT,,0.00,160.7,WeatherDisplay:10.37,2013-02-21 15:39:00,
2013-02-21 07:44:00,35.6,15.3,29.94,SSE,150,0.0,0.0,43,0.00,SCT,,0.00,156.2,WeatherDisplay:10.37,2013-02-21 15:44:00,
2013-02-21 07:49:00,35.7,14.3,29.94,SSE,150,0.0,0.0,41,0.00,SCT,,0.00,177.8,WeatherDisplay:10.37,2013-02-21 15:49:00,
2013-02-21 07:54:00,36.0,12.8,29.94,SSE,150,0.0,0.0,38,0.00,SCT,,0.00,190.4,WeatherDisplay:10.37,2013-02-21 15:54:00,
2013-02-21 07:59:00,36.7,12.8,29.94,SSE,150,0.0,0.0,37,0.00,SCT,,0.00,228.0,WeatherDisplay:10.37,2013-02-21 15:59:00,
2013-02-21 08:04:00,37.4,12.8,29.95,West,279,0.0,0.0,36,0.00,BKN,,0.00,240.5,WeatherDisplay:10.37,2013-02-21 16:04:00,
2013-02-21 08:09:00,37.9,12.0,29.95,WNW,288,3.5,3.5,34,0.00,BKN,,0.00,230.3,WeatherDisplay:10.37,2013-02-21 16:09:00,
2013-02-21 08:14:00,37.7,11.8,29.95,WNW,284,0.0,0.4,34,0.00,BKN,,0.00,212.0,WeatherDisplay:10.37,2013-02-21 16:14:00,
2013-02-21 08:19:00,37.7,10.4,29.96,WSW,256,3.5,3.5,32,0.00,BKN,,0.00,198.4,WeatherDisplay:10.37,2013-02-21 16:19:00,
2013-02-21 08:24:00,38.3,11.7,29.96,SW,218,1.2,0.0,33,0.00,BKN,,0.00,200.6,WeatherDisplay:10.37,2013-02-21 16:24:00,
2013-02-21 08:29:00,38.6,13.3,29.96,SW,226,0.0,0.0,35,0.00,BKN,,0.00,185.8,WeatherDisplay:10.37,2013-02-21 16:29:00,
2013-02-21 08:34:00,39.0,14.9,29.96,SW,228,3.5,3.5,37,0.00,BKN,,0.00,188.1,WeatherDisplay:10.37,2013-02-21 16:34:00,
2013-02-21 08:39:00,39.2,15.7,29.96,SSW,196,0.0,0.0,38,0.00,BKN,,0.00,194.9,WeatherDisplay:10.37,2013-02-21 16:39:00,
2013-02-21 08:44:00,39.3,16.4,29.96,SSE,162,3.5,3.5,39,0.00,BKN,,0.00,212.0,WeatherDisplay:10.37,2013-02-21 16:44:00,
2013-02-21 08:49:00,39.4,15.9,29.96,SSW,194,2.3,2.3,38,0.00,BKN,,0.00,226.9,WeatherDisplay:10.37,2013-02-21 16:49:00,
2013-02-21 08:54:00,39.6,16.6,29.96,SSW,208,1.2,0.0,39,0.00,BKN,,0.00,218.9,WeatherDisplay:10.37,2013-02-21 16:54:00,
2013-02-21 08:59:00,39.4,16.5,29.96,South,185,3.5,3.5,39,0.00,BKN,,0.00,264.5,WeatherDisplay:10.37,2013-02-21 16:59:00,
2013-02-21 09:04:00,39.7,16.7,29.96,WSW,243,3.5,3.5,39,0.00,BKN,,0.00,312.4,WeatherDisplay:10.37,2013-02-21 17:04:00,
2013-02-21 09:09:00,40.3,16.7,29.96,SSE,165,1.2,1.2,38,0.00,BKN,,0.00,386.5,WeatherDisplay:10.37,2013-02-21 17:09:00,
2013-02-21 09:14:00,40.7,17.0,29.96,SSE,154,5.8,5.8,38,0.00,BKN,,0.00,370.5,WeatherDisplay:10.37,2013-02-21 17:14:00,
2013-02-21 09:19:00,41.0,17.3,29.97,South,186,3.5,3.5,38,0.00,BKN,,0.00,370.5,WeatherDisplay:10.37,2013-02-21 17:19:00,
2013-02-21 09:24:00,40.9,17.2,29.97,SE,140,6.0,6.0,38,0.00,BKN,,0.00,368.2,WeatherDisplay:10.37,2013-02-21 17:24:00,
2013-02-21 09:29:00,41.2,16.9,29.97,SSE,164,5.8,5.8,37,0.00,BKN,,0.00,386.5,WeatherDisplay:10.37,2013-02-21 17:29:00,
2013-02-21 09:34:00,41.3,16.9,29.97,SSE,150,4.0,4.0,37,0.00,BKN,,0.00,372.8,WeatherDisplay:10.37,2013-02-21 17:34:00,
2013-02-21 09:39:00,41.2,16.2,29.97,SSE,165,1.2,0.0,36,0.00,BKN,,0.00,442.3,WeatherDisplay:10.37,2013-02-21 17:39:00,
2013-02-21 09:44:00,41.7,16.0,29.98,SSE,166,1.2,1.2,35,0.00,BKN,,0.00,473.1,WeatherDisplay:10.37,2013-02-21 17:44:00,
2013-02-21 09:49:00,42.2,15.8,29.98,SE,144,2.0,2.0,34,0.00,BKN,,0.00,428.6,WeatherDisplay:10.37,2013-02-21 17:49:00,
2013-02-21 09:54:00,42.6,16.2,29.98,SSE,162,2.3,2.3,34,0.00,BKN,,0.00,418.4,WeatherDisplay:10.37,2013-02-21 17:54:00,
2013-02-21 09:59:00,42.3,15.2,29.98,SSE,150,3.5,3.5,33,0.00,BKN,,0.00,420.7,WeatherDisplay:10.37,2013-02-21 17:59:00,
2013-02-21 10:04:00,42.6,14.8,29.98,SSE,149,2.0,2.0,32,0.00,OVC,,0.00,375.1,WeatherDisplay:10.37,2013-02-21 18:04:00,
2013-02-21 10:09:00,42.4,14.6,29.98,SSE,147,5.8,5.8,32,0.00,OVC,,0.00,370.5,WeatherDisplay:10.37,2013-02-21 18:09:00,
2013-02-21 10:14:00,43.0,15.8,29.98,East,88,2.3,2.3,33,0.00,OVC,,0.00,410.4,WeatherDisplay:10.37,2013-02-21 18:14:00,
2013-02-21 10:19:00,43.3,15.4,29.98,SSE,155,2.3,2.3,32,0.00,OVC,,0.00,476.5,WeatherDisplay:10.37,2013-02-21 18:19:00,
2013-02-21 10:24:00,43.7,15.7,29.98,ESE,111,5.8,5.8,32,0.00,OVC,,0.00,491.3,WeatherDisplay:10.37,2013-02-21 18:24:00,
2013-02-21 10:29:00,43.7,15.0,29.98,South,182,4.6,4.6,31,0.00,OVC,,0.00,481.1,WeatherDisplay:10.37,2013-02-21 18:29:00,
2013-02-21 10:34:00,43.7,14.2,29.98,SE,128,1.2,0.0,30,0.00,OVC,,0.00,457.1,WeatherDisplay:10.37,2013-02-21 18:34:00,
2013-02-21 10:39:00,44.3,14.8,29.98,SE,132,5.8,5.8,30,0.00,OVC,,0.00,476.5,WeatherDisplay:10.37,2013-02-21 18:39:00,
2013-02-21 10:44:00,44.5,14.2,29.98,SSE,160,5.8,5.8,29,0.00,OVC,,0.00,513.0,WeatherDisplay:10.37,2013-02-21 18:44:00,
2013-02-21 10:49:00,44.3,13.2,29.98,SSE,153,3.5,3.5,28,0.00,OVC,,0.00,433.2,WeatherDisplay:10.37,2013-02-21 18:49:00,
2013-02-21 10:54:00,44.3,12.4,29.98,SSE,148,4.6,4.6,27,0.00,OVC,,0.00,451.4,WeatherDisplay:10.37,2013-02-21 18:54:00,
2013-02-21 10:59:00,43.7,11.0,29.98,South,178,1.2,0.0,26,0.00,OVC,,0.00,457.1,WeatherDisplay:10.37,2013-02-21 18:59:00,
2013-02-21 11:04:00,44.5,13.4,29.98,SSW,194,0.0,0.0,28,0.00,OVC,,0.00,491.3,WeatherDisplay:10.37,2013-02-21 19:04:00,
2013-02-21 11:09:00,45.1,13.1,29.98,East,89,5.0,5.0,27,0.00,OVC,,0.00,465.1,WeatherDisplay:10.37,2013-02-21 19:09:00,
2013-02-21 11:14:00,46.2,10.4,29.97,East,87,5.8,5.8,23,0.00,OVC,,0.00,599.6,WeatherDisplay:10.37,2013-02-21 19:14:00,
2013-02-21 11:19:00,48.0,10.9,29.97,NE,51,10.4,10.4,22,0.00,OVC,,0.00,743.3,WeatherDisplay:10.37,2013-02-21 19:19:00,
2013-02-21 11:24:00,49.5,11.1,29.97,NNE,26,10.4,10.4,21,0.00,OVC,,0.00,841.3,WeatherDisplay:10.37,2013-02-21 19:24:00,
2013-02-21 11:29:00,49.0,9.6,29.97,NW,318,5.8,5.8,20,0.00,OVC,,0.00,864.1,WeatherDisplay:10.37,2013-02-21 19:29:00,
2013-02-21 11:34:00,49.2,9.8,29.97,NNE,19,8.1,8.1,20,0.00,OVC,,0.00,841.3,WeatherDisplay:10.37,2013-02-21 19:34:00,
2013-02-21 11:39:00,49.6,11.2,29.97,NE,52,6.9,6.9,21,0.00,OVC,,0.00,727.3,WeatherDisplay:10.37,2013-02-21 19:39:00,
2013-02-21 11:44:00,49.5,10.0,29.97,East,87,8.1,8.1,20,0.00,OVC,,0.00,743.3,WeatherDisplay:10.37,2013-02-21 19:44:00,
2013-02-21 11:49:00,49.8,9.1,29.97,ENE,61,6.9,6.9,19,0.00,OVC,,0.00,715.9,WeatherDisplay:10.37,2013-02-21 19:49:00,
2013-02-21 11:54:00,49.8,7.9,29.97,NNW,340,4.6,4.6,18,0.00,OVC,,0.00,671.5,WeatherDisplay:10.37,2013-02-21 19:54:00,
2013-02-21 11:59:00,49.6,7.8,29.96,NNE,18,8.0,8.0,18,0.00,OVC,,0.00,749.0,WeatherDisplay:10.37,2013-02-21 19:59:00,
2013-02-21 12:04:00,50.4,9.6,29.96,NNE,26,9.2,9.2,19,0.00,OVC,,0.00,864.1,WeatherDisplay:10.37,2013-02-21 20:04:00,
2013-02-21 12:09:00,51.3,7.9,29.96,NNE,32,3.5,3.9,17,0.00,OVC,,0.00,682.9,WeatherDisplay:10.37,2013-02-21 20:09:00,
2013-02-21 12:14:00,50.7,8.7,29.95,NE,41,9.2,9.2,18,0.00,OVC,,0.00,627.0,WeatherDisplay:10.37,2013-02-21 20:14:00,
2013-02-21 12:19:00,49.8,9.1,29.95,WNW,299,9.2,9.2,19,0.00,OVC,,0.00,690.8,WeatherDisplay:10.37,2013-02-21 20:19:00,
2013-02-21 12:24:00,49.5,7.7,29.95,SW,233,3.5,3.5,18,0.00,OVC,,0.00,681.7,WeatherDisplay:10.37,2013-02-21 20:24:00,
2013-02-21 12:29:00,50.1,9.4,29.95,NNE,18,1.2,0.0,19,0.00,OVC,,0.00,669.2,WeatherDisplay:10.37,2013-02-21 20:29:00,
2013-02-21 12:34:00,49.0,8.5,29.95,South,169,0.0,0.0,19,0.00,OVC,,0.00,739.9,WeatherDisplay:10.37,2013-02-21 20:34:00,
2013-02-21 12:39:00,50.5,9.7,29.95,South,188,1.2,1.2,19,0.00,OVC,,0.00,775.2,WeatherDisplay:10.37,2013-02-21 20:39:00,
2013-02-21 12:44:00,50.8,8.7,29.94,SW,223,3.5,3.9,18,0.00,OVC,,0.00,857.3,WeatherDisplay:10.37,2013-02-21 20:44:00,
2013-02-21 12:49:00,50.8,9.9,29.94,WNW,283,3.5,3.5,19,0.00,OVC,,0.00,801.4,WeatherDisplay:10.37,2013-02-21 20:49:00,
2013-02-21 12:54:00,51.0,10.1,29.94,WNW,284,3.5,3.5,19,0.00,OVC,,0.00,809.4,WeatherDisplay:10.37,2013-02-21 20:54:00,
2013-02-21 12:59:00,51.0,8.9,29.94,West,271,4.6,4.6,18,0.00,OVC,,0.00,745.6,WeatherDisplay:10.37,2013-02-21 20:59:00,
2013-02-21 13:04:00,50.8,6.1,29.94,NE,36,4.6,4.6,16,0.00,BKN,,0.00,673.7,WeatherDisplay:10.37,2013-02-21 21:04:00,
2013-02-21 13:09:00,51.3,6.5,29.94,West,263,4.6,4.6,16,0.00,BKN,,0.00,737.6,WeatherDisplay:10.37,2013-02-21 21:09:00,
2013-02-21 13:14:00,51.9,7.0,29.94,NW,326,8.1,8.1,16,0.00,BKN,,0.00,785.5,WeatherDisplay:10.37,2013-02-21 21:14:00,
2013-02-21 13:19:00,51.7,5.4,29.94,NNE,27,8.1,8.1,15,0.00,BKN,,0.00,803.7,WeatherDisplay:10.37,2013-02-21 21:19:00,
2013-02-21 13:24:00,51.7,3.9,29.94,North,351,9.0,9.0,14,0.00,BKN,,0.00,798.0,WeatherDisplay:10.37,2013-02-21 21:24:00,
2013-02-21 13:29:00,51.9,7.0,29.94,NNE,22,11.5,11.5,16,0.00,BKN,,0.00,803.7,WeatherDisplay:10.37,2013-02-21 21:29:00,
2013-02-21 13:34:00,51.7,3.9,29.94,NNW,331,8.1,8.1,14,0.00,BKN,,0.00,795.7,WeatherDisplay:10.37,2013-02-21 21:34:00,
2013-02-21 13:39:00,51.7,6.9,29.94,WNW,286,6.9,6.9,16,0.00,BKN,,0.00,733.0,WeatherDisplay:10.37,2013-02-21 21:39:00,
2013-02-21 13:44:00,51.6,3.9,29.94,East,85,10.4,10.4,14,0.00,BKN,,0.00,767.2,WeatherDisplay:10.37,2013-02-21 21:44:00,
2013-02-21 13:49:00,51.3,5.1,29.94,North,360,5.8,5.8,15,0.00,BKN,,0.00,739.9,WeatherDisplay:10.37,2013-02-21 21:49:00,
2013-02-21 13:54:00,51.4,3.7,29.94,North,351,10.4,10.4,14,0.00,BKN,,0.00,739.9,WeatherDisplay:10.37,2013-02-21 21:54:00,
2013-02-21 13:59:00,51.7,5.4,29.94,NE,34,11.5,11.5,15,0.00,BKN,,0.00,727.3,WeatherDisplay:10.37,2013-02-21 21:59:00,
2013-02-21 14:04:00,51.6,2.3,29.94,NNW,336,5.8,5.8,13,0.00,BKN,,0.00,715.9,WeatherDisplay:10.37,2013-02-21 22:04:00,
2013-02-21 14:09:00,51.7,2.3,29.94,NNW,345,11.5,11.5,13,0.00,BKN,,0.00,697.7,WeatherDisplay:10.37,2013-02-21 22:09:00,
2013-02-21 14:14:00,51.4,3.7,29.94,NNW,327,9.2,9.2,14,0.00,BKN,,0.00,687.4,WeatherDisplay:10.37,2013-02-21 22:14:00,
2013-02-21 14:19:00,52.0,2.6,29.94,NNE,33,9.2,9.2,13,0.00,BKN,,0.00,669.2,WeatherDisplay:10.37,2013-02-21 22:19:00,
2013-02-21 14:24:00,51.4,2.1,29.94,SW,217,6.9,6.9,13,0.00,BKN,,0.00,655.5,WeatherDisplay:10.37,2013-02-21 22:24:00,
2013-02-21 14:29:00,51.9,4.1,29.95,NNE,13,10.4,10.4,14,0.00,BKN,,0.00,637.3,WeatherDisplay:10.37,2013-02-21 22:29:00,
2013-02-21 14:34:00,51.6,3.9,29.95,NW,319,9.2,9.2,14,0.00,BKN,,0.00,623.6,WeatherDisplay:10.37,2013-02-21 22:34:00,
2013-02-21 14:39:00,51.3,5.1,29.95,North,360,10.4,10.4,15,0.00,BKN,,0.00,607.6,WeatherDisplay:10.37,2013-02-21 22:39:00,
2013-02-21 14:44:00,51.3,3.6,29.95,NNW,331,7.0,7.0,14,0.00,BKN,,0.00,595.1,WeatherDisplay:10.37,2013-02-21 22:44:00,
2013-02-21 14:49:00,51.4,5.2,29.95,North,360,9.2,9.2,15,0.00,BKN,,0.00,579.1,WeatherDisplay:10.37,2013-02-21 22:49:00,
2013-02-21 14:54:00,51.3,6.5,29.95,NE,44,6.9,6.9,16,0.00,BKN,,0.00,563.2,WeatherDisplay:10.37,2013-02-21 22:54:00,
2013-02-21 14:59:00,51.1,5.0,29.95,North,360,5.8,5.8,15,0.00,BKN,,0.00,544.9,WeatherDisplay:10.37,2013-02-21 22:59:00,
2013-02-21 15:04:00,51.1,5.0,29.95,NNE,15,9.2,9.2,15,0.00,BKN,,0.00,525.5,WeatherDisplay:10.37,2013-02-21 23:04:00,
2013-02-21 15:09:00,50.8,4.7,29.95,West,277,6.0,6.0,15,0.00,BKN,,0.00,508.4,WeatherDisplay:10.37,2013-02-21 23:09:00,
2013-02-21 15:14:00,50.5,4.5,29.94,North,360,11.5,11.5,15,0.00,BKN,,0.00,486.8,WeatherDisplay:10.37,2013-02-21 23:14:00,
2013-02-21 15:19:00,50.4,5.8,29.94,NNE,26,8.1,8.1,16,0.00,BKN,,0.00,475.4,WeatherDisplay:10.37,2013-02-21 23:19:00,
2013-02-21 15:24:00,50.1,4.2,29.94,NNW,346,11.5,11.5,15,0.00,BKN,,0.00,451.4,WeatherDisplay:10.37,2013-02-21 23:24:00,
2013-02-21 15:29:00,49.9,4.0,29.95,North,360,9.2,9.2,15,0.00,BKN,,0.00,433.2,WeatherDisplay:10.37,2013-02-21 23:29:00,
2013-02-21 15:34:00,49.9,5.4,29.95,North,351,9.2,9.2,16,0.00,BKN,,0.00,418.4,WeatherDisplay:10.37,2013-02-21 23:34:00,
2013-02-21 15:39:00,49.5,6.4,29.95,North,349,5.8,5.8,17,0.00,BKN,,0.00,359.1,WeatherDisplay:10.37,2013-02-21 23:39:00,
2013-02-21 15:44:00,49.3,6.2,29.95,ENE,62,6.9,6.9,17,0.00,BKN,,0.00,376.2,WeatherDisplay:10.37,2013-02-21 23:44:00,
2013-02-21 15:50:00,49.2,4.8,29.95,NNW,342,9.2,9.2,16,0.00,BKN,,0.00,360.2,WeatherDisplay:10.37,2013-02-21 23:50:00,
2013-02-21 15:55:00,49.3,4.9,29.95,North,351,4.6,4.6,16,0.00,BKN,,0.00,336.3,WeatherDisplay:10.37,2013-02-21 23:55:00,
2013-02-21 16:00:00,49.2,4.8,29.95,North,360,6.9,6.9,16,0.00,SCT,,0.00,308.9,WeatherDisplay:10.37,2013-02-22 00:00:00,
2013-02-21 16:06:00,48.9,4.6,29.95,NNE,28,6.9,6.9,16,0.00,SCT,,0.00,286.1,WeatherDisplay:10.37,2013-02-22 00:06:00,
2013-02-21 16:11:00,48.7,4.4,29.95,NNE,12,6.9,6.9,16,0.00,SCT,,0.00,266.8,WeatherDisplay:10.37,2013-02-22 00:11:00,
2013-02-21 16:16:00,48.7,4.4,29.95,ENE,58,6.9,6.9,16,0.00,SCT,,0.00,250.8,WeatherDisplay:10.37,2013-02-22 00:16:00,
2013-02-21 16:21:00,48.6,2.9,29.95,North,351,5.8,5.8,15,0.00,SCT,,0.00,230.3,WeatherDisplay:10.37,2013-02-22 00:21:00,
2013-02-21 16:26:00,48.3,2.7,29.95,North,10,5.8,5.8,15,0.00,SCT,,0.00,208.6,WeatherDisplay:10.37,2013-02-22 00:26:00,
2013-02-21 16:31:00,48.2,4.0,29.95,NNW,344,5.8,5.8,16,0.00,SCT,,0.00,188.1,WeatherDisplay:10.37,2013-02-22 00:31:00,
2013-02-21 16:36:00,47.9,3.8,29.95,NNW,327,5.8,5.8,16,0.00,SCT,,0.00,169.9,WeatherDisplay:10.37,2013-02-22 00:36:00,
2013-02-21 16:41:00,47.4,3.4,29.95,NNW,344,4.6,4.6,16,0.00,SCT,,0.00,152.8,WeatherDisplay:10.37,2013-02-22 00:41:00,
2013-02-21 16:46:00,47.1,4.4,29.95,NNW,333,4.6,4.6,17,0.00,SCT,,0.00,132.2,WeatherDisplay:10.37,2013-02-22 00:46:00,
2013-02-21 16:51:00,46.8,4.2,29.95,North,360,3.5,3.5,17,0.00,SCT,,0.00,111.7,WeatherDisplay:10.37,2013-02-22 00:51:00,
2013-02-21 16:56:00,46.2,6.1,29.95,NE,35,3.5,3.5,19,0.00,SCT,,0.00,92.3,WeatherDisplay:10.37,2013-02-22 00:56:00,
2013-02-21 17:01:00,45.8,8.0,29.96,ENE,65,4.6,4.6,21,0.00,SCT,,0.00,71.8,WeatherDisplay:10.37,2013-02-22 01:01:00,
2013-02-21 17:06:00,45.2,8.5,29.96,ENE,72,4.6,4.6,22,0.00,SCT,,0.00,20.5,WeatherDisplay:10.37,2013-02-22 01:06:00,
2013-02-21 17:11:00,44.9,8.3,29.96,ENE,76,2.3,2.3,22,0.00,SCT,,0.00,18.2,WeatherDisplay:10.37,2013-02-22 01:11:00,
2013-02-21 17:16:00,44.6,10.0,29.96,East,88,1.2,0.0,24,0.00,SCT,,0.00,13.7,WeatherDisplay:10.37,2013-02-22 01:16:00,
2013-02-21 17:21:00,43.6,10.9,29.96,NNE,12,3.5,3.5,26,0.00,SCT,,0.00,12.5,WeatherDisplay:10.37,2013-02-22 01:21:00,
2013-02-21 17:26:00,43.4,9.9,29.96,ENE,61,1.2,0.0,25,0.00,SCT,,0.00,10.3,WeatherDisplay:10.37,2013-02-22 01:26:00,
2013-02-21 17:31:00,43.7,9.2,29.97,SSE,165,0.0,0.0,24,0.00,SCT,,0.00,5.7,WeatherDisplay:10.37,2013-02-22 01:31:00,
2013-02-21 17:36:00,42.6,10.1,29.97,SSE,165,0.0,0.0,26,0.00,SCT,,0.00,0.0,WeatherDisplay:10.37,2013-02-22 01:36:00,
2013-02-21 17:41:00,41.9,9.5,29.97,SSE,165,0.0,0.0,26,0.00,SCT,,0.00,0.0,WeatherDisplay:10.37,2013-02-22 01:41:00,
2013-02-21 17:46:00,42.0,9.5,29.97,South,171,3.5,3.5,26,0.00,SCT,,0.00,0.0,WeatherDisplay:10.37,2013-02-22 01:46:00,
2013-02-21 17:51:00,42.6,10.1,29.97,East,96,1.2,1.2,26,0.00,SCT,,0.00,0.0,WeatherDisplay:10.37,2013-02-22 01:51:00,
2013-02-21 17:56:00,42.9,9.4,29.97,SSE,156,0.0,0.0,25,0.00,SCT,,0.00,0.0,WeatherDisplay:10.37,2013-02-22 01:56:00,
2013-02-21 18:01:00,42.4,9.9,29.98,South,169,1.0,1.0,26,0.00,SCT,,0.00,0.0,WeatherDisplay:10.37,2013-02-22 02:01:00,
2013-02-21 18:06:00,42.7,10.1,29.98,SSE,168,1.2,0.0,26,0.00,SCT,,0.00,0.0,WeatherDisplay:10.37,2013-02-22 02:06:00,
2013-02-21 18:11:00,42.2,9.7,29.98,SSE,168,0.0,0.0,26,0.00,SCT,,0.00,0.0,WeatherDisplay:10.37,2013-02-22 02:11:00,
2013-02-21 18:16:00,40.9,10.2,29.98,SSE,168,0.0,0.0,28,0.00,SCT,,0.00,0.0,WeatherDisplay:10.37,2013-02-22 02:16:00,
2013-02-21 18:21:00,40.0,11.0,29.98,SSE,168,0.0,0.0,30,0.00,SCT,,0.00,0.0,WeatherDisplay:10.37,2013-02-22 02:21:00,
2013-02-21 18:26:00,39.4,11.2,29.98,SSE,168,0.0,0.0,31,0.00,SCT,,0.00,0.0,WeatherDisplay:10.37,2013-02-22 02:26:00,
2013-02-21 18:31:00,39.6,11.4,29.99,SSW,195,0.0,0.0,31,0.00,SCT,,0.00,0.0,WeatherDisplay:10.37,2013-02-22 02:31:00,
2013-02-21 18:36:00,39.2,11.8,29.99,SW,217,0.0,0.0,32,0.00,SCT,,0.00,0.0,WeatherDisplay:10.37,2013-02-22 02:36:00,
2013-02-21 18:41:00,39.4,10.5,29.99,WSW,242,0.0,0.0,30,0.00,SCT,,0.00,0.0,WeatherDisplay:10.37,2013-02-22 02:41:00,
2013-02-21 18:46:00,39.2,10.3,30.00,WSW,248,0.0,0.0,30,0.00,SCT,,0.00,0.0,WeatherDisplay:10.37,2013-02-22 02:46:00,
2013-02-21 18:51:00,38.9,10.8,30.00,WSW,248,0.0,0.0,31,0.00,SCT,,0.00,0.0,WeatherDisplay:10.37,2013-02-22 02:51:00,
2013-02-21 18:56:00,38.7,10.6,30.00,West,265,1.2,1.2,31,0.00,SCT,,0.00,0.0,WeatherDisplay:10.37,2013-02-22 02:56:00,
2013-02-21 19:01:00,39.0,10.1,30.00,West,267,0.0,0.0,30,0.00,CLR,,0.00,0.0,WeatherDisplay:10.37,2013-02-22 03:01:00,
2013-02-21 19:06:00,38.6,9.8,30.00,West,267,0.0,0.0,30,0.00,CLR,,0.00,0.0,WeatherDisplay:10.37,2013-02-22 03:06:00,
2013-02-21 19:11:00,38.6,9.8,30.00,West,266,0.0,0.0,30,0.00,CLR,,0.00,0.0,WeatherDisplay:10.37,2013-02-22 03:11:00,
2013-02-21 19:16:00,38.3,10.3,30.01,West,267,0.0,0.0,31,0.00,CLR,,0.00,0.0,WeatherDisplay:10.37,2013-02-22 03:16:00,
2013-02-21 19:21:00,38.2,10.2,30.01,West,267,0.0,0.0,31,0.00,CLR,,0.00,0.0,WeatherDisplay:10.37,2013-02-22 03:21:00,
2013-02-21 19:26:00,38.0,10.7,30.01,West,265,1.2,1.2,32,0.00,CLR,,0.00,0.0,WeatherDisplay:10.37,2013-02-22 03:26:00,
2013-02-21 19:31:00,37.9,9.9,30.02,SW,236,1.2,0.0,31,0.00,CLR,,0.00,0.0,WeatherDisplay:10.37,2013-02-22 03:31:00,
2013-02-21 19:36:00,38.2,10.2,30.02,WSW,250,3.5,3.5,31,0.00,CLR,,0.00,0.0,WeatherDisplay:10.37,2013-02-22 03:36:00,
2013-02-21 19:41:00,38.3,11.0,30.02,West,263,1.2,1.2,32,0.00,CLR,,0.00,0.0,WeatherDisplay:10.37,2013-02-22 03:41:00,
2013-02-21 19:46:00,38.6,10.5,30.02,West,261,0.0,0.0,31,0.00,CLR,,0.00,0.0,WeatherDisplay:10.37,2013-02-22 03:46:00,
2013-02-21 19:51:00,38.3,11.0,30.02,WSW,248,0.0,0.0,32,0.00,CLR,,0.00,0.0,WeatherDisplay:10.37,2013-02-22 03:51:00,
2013-02-21 19:56:00,37.4,10.2,30.02,WSW,249,0.0,0.0,32,0.00,CLR,,0.00,0.0,WeatherDisplay:10.37,2013-02-22 03:56:00,
2013-02-21 20:01:00,37.9,9.9,30.03,West,271,1.2,1.2,31,0.00,CLR,,0.00,0.0,WeatherDisplay:10.37,2013-02-22 04:01:00,
2013-02-21 20:06:00,38.0,10.0,30.03,West,271,0.0,0.0,31,0.00,CLR,,0.00,0.0,WeatherDisplay:10.37,2013-02-22 04:06:00,
2013-02-21 20:11:00,38.3,10.3,30.03,WSW,250,0.0,0.2,31,0.00,CLR,,0.00,0.0,WeatherDisplay:10.37,2013-02-22 04:11:00,
2013-02-21 20:16:00,37.3,10.1,30.03,West,262,2.0,2.0,32,0.00,CLR,,0.00,0.0,WeatherDisplay:10.37,2013-02-22 04:16:00,
2013-02-21 20:21:00,38.3,9.5,30.03,WSW,258,0.0,0.0,30,0.00,CLR,,0.00,0.0,WeatherDisplay:10.37,2013-02-22 04:21:00,
2013-02-21 20:26:00,37.6,10.4,30.03,West,259,2.0,2.0,32,0.00,CLR,,0.00,0.0,WeatherDisplay:10.37,2013-02-22 04:26:00,
2013-02-21 20:31:00,38.4,9.6,30.03,West,259,1.2,0.0,30,0.00,CLR,,0.00,0.0,WeatherDisplay:10.37,2013-02-22 04:31:00,
2013-02-21 20:36:00,37.9,9.9,30.03,West,265,1.2,0.0,31,0.00,CLR,,0.00,0.0,WeatherDisplay:10.37,2013-02-22 04:36:00,
2013-02-21 20:41:00,37.4,10.2,30.03,West,265,0.0,0.0,32,0.00,CLR,,0.00,0.0,WeatherDisplay:10.37,2013-02-22 04:41:00,
2013-02-21 20:46:00,36.9,9.7,30.03,West,265,0.0,0.0,32,0.00,CLR,,0.00,0.0,WeatherDisplay:10.37,2013-02-22 04:46:00,
2013-02-21 20:51:00,37.7,9.0,30.03,West,273,0.0,0.0,30,0.00,CLR,,0.00,0.0,WeatherDisplay:10.37,2013-02-22 04:51:00,
2013-02-21 20:56:00,37.4,8.7,30.03,West,272,0.0,0.0,30,0.00,CLR,,0.00,0.0,WeatherDisplay:10.37,2013-02-22 04:56:00,
2013-02-21 21:00:00,38.6,6.6,30.04,NNW,340,3.5,3.5,26,0.00,CLR,,0.00,0.0,WeatherDisplay:10.37,2013-02-22 05:00:00,
2013-02-21 21:05:00,40.2,5.3,30.04,NNE,29,0.0,0.1,23,0.00,CLR,,0.00,0.0,WeatherDisplay:10.37,2013-02-22 05:05:00,
2013-02-21 21:10:00,39.7,4.9,30.04,NE,46,3.5,3.5,23,0.00,CLR,,0.00,0.0,WeatherDisplay:10.37,2013-02-22 05:10:00,
2013-02-21 21:15:00,39.4,6.4,30.04,NE,46,0.0,0.0,25,0.00,CLR,,0.00,0.0,WeatherDisplay:10.37,2013-02-22 05:15:00,
2013-02-21 21:21:00,38.4,6.4,30.04,NE,46,0.0,0.0,26,0.00,CLR,,0.00,0.0,WeatherDisplay:10.37,2013-02-22 05:21:00,
2013-02-21 21:26:00,38.2,7.9,30.04,NE,46,0.0,0.0,28,0.00,CLR,,0.00,0.0,WeatherDisplay:10.37,2013-02-22 05:26:00,
2013-02-21 21:31:00,39.3,5.5,30.04,WNW,285,1.0,0.0,24,0.00,CLR,,0.00,0.0,WeatherDisplay:10.37,2013-02-22 05:31:00,
2013-02-21 21:36:00,38.9,5.1,30.04,NW,310,2.3,2.3,24,0.00,CLR,,0.00,0.0,WeatherDisplay:10.37,2013-02-22 05:36:00,
2013-02-21 21:41:00,39.3,4.5,30.04,WNW,291,1.2,1.2,23,0.00,CLR,,0.00,0.0,WeatherDisplay:10.37,2013-02-22 05:41:00,
2013-02-21 21:46:00,40.4,3.5,30.04,West,276,4.6,4.6,21,0.00,CLR,,0.00,0.0,WeatherDisplay:10.37,2013-02-22 05:46:00,
2013-02-21 21:51:00,40.9,3.9,30.04,WNW,295,3.5,3.5,21,0.00,CLR,,0.00,0.0,WeatherDisplay:10.37,2013-02-22 05:51:00,
2013-02-21 21:56:00,40.7,3.7,30.04,WNW,289,2.0,2.0,21,0.00,CLR,,0.00,0.0,WeatherDisplay:10.37,2013-02-22 05:56:00,
2013-02-21 22:01:00,40.6,3.6,30.05,NW,319,2.3,2.3,21,0.00,CLR,,0.00,0.0,WeatherDisplay:10.37,2013-02-22 06:01:00,
2013-02-21 22:06:00,40.9,2.8,30.05,WNW,286,3.5,3.5,20,0.00,CLR,,0.00,0.0,WeatherDisplay:10.37,2013-02-22 06:06:00,
2013-02-21 22:11:00,40.9,3.9,30.05,WNW,288,3.5,3.5,21,0.00,CLR,,0.00,0.0,WeatherDisplay:10.37,2013-02-22 06:11:00,
2013-02-21 22:16:00,40.9,3.9,30.05,WNW,286,3.5,3.5,21,0.00,CLR,,0.00,0.0,WeatherDisplay:10.37,2013-02-22 06:16:00,
2013-02-21 22:21:00,40.7,3.7,30.05,West,276,6.9,6.9,21,0.00,CLR,,0.00,0.0,WeatherDisplay:10.37,2013-02-22 06:21:00,
2013-02-21 22:26:00,41.2,3.1,30.05,WNW,286,6.9,6.9,20,0.00,CLR,,0.00,0.0,WeatherDisplay:10.37,2013-02-22 06:26:00,
2013-02-21 22:31:00,41.4,3.3,30.04,West,279,2.3,2.3,20,0.00,CLR,,0.00,0.0,WeatherDisplay:10.37,2013-02-22 06:31:00,
2013-02-21 22:36:00,41.0,2.9,30.04,WNW,286,3.5,3.5,20,0.00,CLR,,0.00,0.0,WeatherDisplay:10.37,2013-02-22 06:36:00,
2013-02-21 22:41:00,41.0,2.9,30.04,WNW,298,3.5,3.5,20,0.00,CLR,,0.00,0.0,WeatherDisplay:10.37,2013-02-22 06:41:00,
2013-02-21 22:46:00,41.2,3.1,30.05,WNW,296,3.5,3.5,20,0.00,CLR,,0.00,0.0,WeatherDisplay:10.37,2013-02-22 06:46:00,
2013-02-21 22:51:00,41.2,3.1,30.05,West,275,4.6,4.6,20,0.00,CLR,,0.00,0.0,WeatherDisplay:10.37,2013-02-22 06:51:00,
2013-02-21 22:56:00,41.0,2.9,30.05,NW,309,5.8,5.8,20,0.00,CLR,,0.00,0.0,WeatherDisplay:10.37,2013-02-22 06:56:00,
2013-02-21 23:01:00,40.6,3.6,30.06,WNW,288,4.6,4.6,21,0.00,CLR,,0.00,0.0,WeatherDisplay:10.37,2013-02-22 07:01:00,
2013-02-21 23:06:00,40.6,3.6,30.06,WNW,289,3.5,3.5,21,0.00,CLR,,0.00,0.0,WeatherDisplay:10.37,2013-02-22 07:06:00,
2013-02-21 23:11:00,41.0,4.0,30.06,North,360,6.0,6.0,21,0.00,CLR,,0.00,0.0,WeatherDisplay:10.37,2013-02-22 07:11:00,
2013-02-21 23:16:00,41.4,4.3,30.06,NW,323,4.6,4.6,21,0.00,CLR,,0.00,0.0,WeatherDisplay:10.37,2013-02-22 07:16:00,
2013-02-21 23:21:00,41.9,3.7,30.06,NNW,330,6.0,6.0,20,0.00,CLR,,0.00,0.0,WeatherDisplay:10.37,2013-02-22 07:21:00,
2013-02-21 23:26:00,41.7,4.6,30.06,North,10,1.2,1.2,21,0.00,CLR,,0.00,0.0,WeatherDisplay:10.37,2013-02-22 07:26:00,
2013-02-21 23:31:00,41.4,4.3,30.06,West,275,3.5,3.5,21,0.00,CLR,,0.00,0.0,WeatherDisplay:10.37,2013-02-22 07:31:00,
2013-02-21 23:36:00,41.3,4.2,30.06,WNW,302,3.5,3.5,21,0.00,CLR,,0.00,0.0,WeatherDisplay:10.37,2013-02-22 07:36:00,
2013-02-21 23:41:00,41.3,4.2,30.06,West,278,5.0,5.0,21,0.00,CLR,,0.00,0.0,WeatherDisplay:10.37,2013-02-22 07:41:00,
2013-02-21 23:46:00,41.3,5.2,30.06,NW,313,1.0,1.0,22,0.00,CLR,,0.00,0.0,WeatherDisplay:10.37,2013-02-22 07:46:00,
2013-02-21 23:51:00,41.3,5.2,30.06,NNW,339,2.3,2.3,22,0.00,CLR,,0.00,0.0,WeatherDisplay:10.37,2013-02-22 07:51:00,
2013-02-21 23:56:00,40.2,6.2,30.06,WNW,287,5.0,5.0,24,0.00,CLR,,0.00,0.0,WeatherDisplay:10.37,2013-02-22 07:56:00,